Location: Unspecified
(0.0000°N, 0.0000°E)
Time: 18:54:24
(UTC+00:00)

STARLINK-36429 - Pass Details

Date: 11 January 2026
Orbit: 253 x 257 km, 43.0° (Epoch: 11 January)

Event Time Altitude Azimuth Distance (km) Brightness Sun altitude
Rises 18:40:56 0° 284° (WNW) 1,822 6.3 -7.6°
Reaches altitude 10° 18:43:51 10° 241° (WSW) 1,024 5.7 -8.3°
Maximum altitude 18:44:28 11° 225° (SW) 987 5.2 -8.5°
Drops below altitude 10° 18:45:06 10° 209° (SSW) 1,024 4.8 -8.6°
Sets 18:48:02 0° 166° (SSE) 1,826 5.4 -9.3°
